Vorticity
7 6 5 4 4 3 3 3 2 2 2 2 2 2 2 2 3 3 3 4 4 4 5 5 5 5 5 6 6 7 7 7 8 8 8 8 8 8 7 7 7 7 6 6 6 5 5 5 4 4 4 4 4 4 4 4 4 4 4 5 5 5 6 6 6 7 7 8 9
5 5 4 3 3 2 2 2 1 1 1 1 2 2 2 3 3 3 4 4 4 5 5 5 5 6 6 6 7 7 7 7 8 8 8 8 7 7 7 7 6 6 5 5 5 4 4 4 4 4 4 4 4 4 4 5 5 5 5 6 6 6 7 8 8 9 9 9 10
4 4 3 2 2 1 1 1 1 1 1 2 2 3 3 3 4 4 4 4 4 5 5 5 6 6 6 6 7 7 7 7 7 7 7 7 7 7 6 6 5 5 5 4 4 4 4 4 4 4 4 4 5 5 5 6 6 6 7 7 7 8 9 9 10 10 10 11 11
3 3 2 2 1 1 1 1 1 2 2 2 3 3 3 4 4 4 4 4 4 5 6 6 6 7 7 7 7 8 8 8 7 7 7 7 6 6 5 5 4 4 4 4 4 4 4 4 4 5 5 5 6 6 6 6 7 7 8 8 9 9 10 10 11 11 11 11 12
2 1 1 1 1 1 1 1 2 2 2 3 3 3 4 4 4 4 5 5 6 6 6 6 7 7 7 7 7 7 7 8 7 7 6 6 5 5 4 4 4 4 4 4 4 4 5 5 5 6 6 6 7 7 7 7 8 9 9 10 10 11 11 11 11 12 12 12 12
1 1 1 1 1 1 2 2 3 3 3 3 4 4 4 5 5 5 6 6 6 6 6 7 7 7 8 8 8 7 7 7 6 6 5 5 4 4 4 4 4 4 4 5 5 5 6 6 6 6 7 7 7 8 8 9 9 10 10 11 11 11 12 12 12 12 12 13 13
1 1 1 1 1 2 2 2 3 3 3 4 4 5 5 5 5 6 6 6 6 7 7 8 8 8 8 8 7 7 6 6 5 5 4 4 4 4 4 4 5 5 5 6 6 6 6 7 7 7 7 8 8 9 9 10 10 10 11 11 11 12 12 12 13 13 14 14 15
1 1 1 1 2 2 2 3 3 4 4 5 5 5 5 5 6 6 6 6 7 7 7 7 7 7 7 6 6 6 5 5 4 4 4 4 4 4 5 5 5 6 6 6 6 7 7 7 7 8 8 9 9 9 10 10 11 11 11 11 12 12 13 13 14 14 15 16 17
1 1 1 2 2 3 3 3 4 4 4 5 5 5 5 5 6 6 6 7 7 7 6 7 7 7 6 6 5 5 4 4 4 4 4 5 5 5 6 6 6 6 6 6 7 7 7 8 8 9 9 9 10 10 10 11 11 12 12 12 12 13 14 15 16 16 17 18 19
1 1 2 2 3 3 4 4 4 5 5 5 5 5 6 6 6 6 7 6 6 6 7 7 6 6 5 5 5 5 4 4 4 5 5 5 6 6 6 6 6 6 6 7 7 7 8 8 9 9 10 11 11 11 11 11 12 12 12 13 13 14 15 17 18 19 19 21 21
2 2 2 3 3 4 4 5 5 5 6 6 6 6 6 6 7 7 7 6 6 7 7 6 6 5 5 5 5 5 5 5 5 5 5 6 6 6 6 6 6 6 7 7 8 8 9 9 10 10 10 11 11 11 11 12 12 13 13 14 15 16 17 18 20 21 21 22 22
2 3 3 4 4 4 5 5 5 6 6 6 6 6 6 6 7 6 6 7 7 7 6 6 5 5 5 5 5 5 5 5 5 5 5 6 6 6 6 6 6 7 7 8 8 9 9 10 10 10 10 11 11 11 11 12 13 14 14 15 17 18 19 20 21 22 22 21 21
3 4 4 4 5 5 5 6 6 6 6 6 6 6 6 6 7 6 6 7 6 6 6 6 5 5 5 5 5 5 5 5 5 5 5 6 6 6 6 6 7 8 8 9 9 10 10 10 11 11 11 10 11 12 13 13 14 15 16 17 19 21 21 21 22 22 21 20 20
4 4 5 5 5 6 6 6 6 6 6 6 6 6 6 6 7 7 7 6 6 6 6 6 6 5 5 5 5 5 5 5 5 5 5 6 6 6 7 7 8 9 9 9 10 10 11 11 11 11 11 11 12 13 14 15 16 17 18 19 20 21 22 22 21 20 19 18 17
5 5 5 5 5 6 6 6 6 6 6 6 6 6 6 7 7 7 6 6 6 6 5 5 5 5 5 5 5 5 5 5 5 5 5 6 6 7 7 8 9 9 10 10 10 11 11 11 11 11 12 12 13 14 15 17 18 19 20 21 21 21 20 20 19 18 17 16 15
5 5 5 6 6 6 7 7 6 6 6 6 6 6 7 7 6 6 6 6 6 5 5 5 5 5 5 5 5 4 4 5 5 5 6 6 7 7 8 9 9 10 10 10 10 11 11 12 12 12 13 13 14 15 17 18 19 20 21 21 21 20 19 18 17 16 15 14 13
5 5 6 6 6 7 7 6 6 6 6 6 6 6 7 6 6 6 6 5 5 5 5 5 5 5 5 5 4 4 4 5 5 6 6 7 7 8 9 10 10 10 10 10 10 11 11 12 13 14 14 15 16 17 18 19 20 20 20 20 20 19 17 16 15 14 13 13 12
5 6 6 7 7 7 6 6 6 6 6 6 6 6 6 6 6 6 6 5 5 5 5 5 5 4 4 4 4 4 5 5 6 6 7 7 8 9 9 10 10 10 10 11 11 11 12 12 13 14 15 16 17 18 19 19 20 20 19 19 18 17 16 14 13 13 12 12 12
6 6 7 7 7 6 6 6 6 6 6 6 6 6 6 6 5 5 5 6 5 5 4 4 4 4 4 4 4 5 5 6 6 7 7 8 9 9 10 10 10 11 11 12 12 12 13 13 14 14 16 17 17 18 19 19 19 19 18 17 16 15 14 13 12 12 11 11 11
6 6 7 7 6 6 6 6 6 6 6 6 6 5 6 6 5 5 5 6 5 5 4 4 4 4 4 4 4 5 6 6 7 7 8 9 9 10 10 10 11 11 12 12 13 13 13 14 15 16 16 17 17 18 19 19 18 17 16 15 14 13 12 12 11 11 11 11 11
6 6 6 6 6 6 6 6 6 6 6 6 6 6 6 6 6 6 6 5 5 5 4 4 4 4 4 4 5 5 6 6 7 8 8 9 10 10 11 11 11 12 13 13 13 14 14 15 16 16 17 17 18 18 18 17 16 16 15 14 13 12 12 11 11 11 11 12 12
6 6 6 6 6 6 6 6 6 6 6 6 6 6 6 6 6 6 5 5 5 4 4 4 4 4 4 4 5 5 6 6 8 9 9 10 10 11 11 12 12 13 13 14 14 14 14 15 16 17 17 17 17 17 16 16 14 14 13 13 12 12 12 11 12 12 12 13 13
6 6 6 6 6 6 6 6 6 6 6 6 6 6 6 6 6 6 5 5 4 4 4 4 4 4 4 5 5 6 6 7 8 10 10 11 11 11 12 13 14 14 14 15 14 15 15 16 17 17 17 16 16 15 15 14 13 13 12 12 12 12 12 12 12 13 13 14 15
6 6 6 6 6 6 6 6 6 6 6 6 6 6 6 6 6 5 5 5 4 4 4 3 4 4 4 5 6 7 7 8 9 10 11 12 12 12 13 14 15 15 15 14 15 16 16 16 16 16 16 15 14 13 13 13 12 12 12 12 12 12 12 12 13 14 15 16 18
6 6 6 7 7 7 7 7 7 6 6 6 6 6 6 6 5 5 4 4 4 4 3 3 4 4 5 6 7 8 9 10 10 10 10 11 13 13 13 14 15 15 15 15 16 17 17 18 16 14 13 13 12 12 12 12 12 12 12 12 12 12 13 13 14 16 17 19 20
6 6 7 7 7 7 7 7 7 6 6 6 6 6 6 5 5 4 4 4 4 3 3 3 4 5 6 7 7 8 10 11 11 11 11 11 12 13 15 15 15 15 15 16 16 17 17 16 15 13 11 11 11 11 11 11 11 11 11 12 12 13 13 15 16 18 19 21 22
7 7 7 7 7 7 7 7 6 6 6 6 6 6 5 5 4 4 3 3 3 3 3 4 5 6 6 7 8 9 10 11 12 12 12 12 12 13 14 16 16 16 16 16 16 16 16 14 12 11 10 10 10 10 11 11 11 11 11 12 13 14 15 17 18 19 21 23 24
7 7 7 7 8 7 7 6 6 6 6 6 6 5 5 4 4 3 3 3 3 3 3 5 6 6 7 8 10 10 10 11 12 12 12 13 14 15 15 15 16 16 17 16 16 15 14 12 11 10 10 10 10 10 10 11 11 11 12 12 14 15 17 19 20 21 23 24 25
8 7 7 8 7 7 6 6 6 6 6 6 5 5 4 4 3 3 3 3 3 4 5 6 6 7 8 10 10 11 11 12 12 12 12 13 15 16 16 16 16 16 16 16 14 13 12 11 10 9 9 9 9 10 10 10 11 11 12 13 15 17 19 21 22 24 25 25 26
7 7 7 7 6 6 6 6 6 5 5 5 4 4 4 3 3 3 3 3 4 5 5 5 6 8 9 10 10 11 12 12 12 13 13 14 15 16 17 17 16 16 15 14 12 11 10 10 9 9 9 9 9 10 10 10 11 12 13 15 17 19 21 23 24 25 25 26 25
7 7 7 6 6 6 6 6 5 5 5 5 4 4 3 3 3 3 3 3 4 4 5 6 8 9 9 10 11 11 12 12 13 14 15 15 15 16 16 16 16 15 14 12 11 10 10 9 9 9 9 9 9 9 10 10 11 12 14 16 19 21 23 24 25 25 25 25 24
7 7 6 6 6 6 5 6 6 5 5 4 4 3 3 3 3 3 3 4 4 5 6 8 9 9 9 10 12 12 13 13 14 15 15 16 16 16 16 16 15 14 12 11 10 10 9 9 9 9 9 9 9 9 10 10 12 13 16 18 21 23 24 25 25 25 25 24 22
6 6 6 6 6 6 6 6 5 5 4 4 3 3 3 3 3 3 4 4 6 7 8 9 9 10 10 11 12 13 14 15 15 15 15 16 16 15 15 15 14 13 11 10 10 9 9 9 9 8 9 9 9 9 10 11 12 15 18 21 23 25 26 26 25 25 23 22 20
6 6 6 6 6 6 6 5 5 4 4 3 3 3 3 3 4 4 5 6 7 8 8 9 10 10 11 11 12 13 14 15 15 15 15 16 15 15 14 14 13 11 10 9 9 9 9 8 8 8 8 9 9 9 10 11 14 17 20 23 25 26 26 26 25 24 22 20 18
6 6 6 6 6 6 6 5 4 4 3 3 3 3 4 4 4 5 5 6 7 7 9 10 10 10 11 13 14 15 14 14 15 16 16 15 14 14 13 13 12 11 10 9 9 8 8 8 8 8 8 8 9 9 11 12 15 19 22 24 26 26 26 26 24 22 20 18 17
6 6 6 6 6 6 5 4 4 3 3 3 3 4 4 4 5 5 5 6 7 8 9 10 10 11 13 14 16 17 17 15 14 14 15 15 14 13 12 11 11 10 10 9 8 8 8 8 8 8 8 8 9 10 11 14 17 21 24 26 26 26 26 25 23 21 19 17 16
6 6 6 6 6 5 5 4 3 3 3 4 4 4 4 4 5 5 6 7 8 9 9 10 11 13 14 15 15 16 17 16 14 13 14 15 14 12 11 10 10 10 9 8 8 8 8 7 7 7 8 8 9 11 13 16 20 23 25 27 27 26 25 23 22 20 18 17 16
7 7 7 6 6 5 4 4 3 3 4 4 4 4 4 4 5 5 7 8 9 9 9 11 13 14 15 15 14 15 16 17 16 14 13 14 14 12 10 9 10 10 9 8 8 8 7 7 7 7 7 8 10 12 15 18 22 25 27 27 26 25 24 22 21 19 18 16 15
7 7 7 6 5 4 4 4 4 4 4 4 4 4 4 5 5 6 7 9 9 10 10 12 13 14 14 14 14 15 16 18 17 16 14 13 13 12 10 8 9 9 9 8 7 7 7 7 7 7 7 8 11 13 17 20 24 26 27 27 25 24 23 21 20 18 17 16 14
7 7 6 6 5 4 4 4 4 4 4 3 4 4 5 5 6 7 8 9 10 11 12 13 13 14 14 15 15 15 15 17 18 17 15 12 11 10 9 8 8 8 8 7 7 7 7 6 6 7 8 9 12 15 19 23 25 27 27 26 24 22 21 20 19 17 16 15 14
7 6 6 5 5 4 4 4 4 4 4 4 4 5 5 5 6 7 8 9 11 12 13 13 13 14 15 16 16 16 16 16 17 17 15 12 10 9 9 8 8 8 7 7 7 7 6 6 6 7 8 10 14 18 22 25 27 27 26 24 23 21 20 18 18 17 15 14 13
Height
5747 5746 5744 5743 5742 5741 5740 5738 5737 5736 5734 5733 5731 5730 5728 5726 5724 5722 5721 5719 5717 5715 5712 5710 5708 5706 5703 5701 5699 5697 5694 5692 5689 5687 5684 5682 5679 5677 5674 5671 5669 5666 5663 5661 5658 5656 5653 5650 5647 5644 5641 5638 5635 5632 5629 5626 5623 5620 5616 5612 5609 5606 5602 5599 5595 5592 5588 5584 5580
5744 5743 5742 5741 5739 5738 5737 5736 5734 5732 5731 5729 5728 5726 5724 5722 5721 5719 5717 5715 5712 5710 5708 5706 5704 5702 5699 5697 5694 5692 5690 5687 5685 5682 5679 5677 5674 5672 5669 5666 5663 5661 5658 5656 5653 5650 5647 5645 5642 5639 5636 5632 5629 5626 5623 5619 5616 5613 5610 5606 5602 5599 5596 5592 5588 5584 5581 5577 5572
5741 5740 5739 5738 5737 5735 5734 5732 5731 5729 5728 5726 5724 5722 5721 5718 5717 5715 5712 5710 5708 5706 5704 5702 5699 5697 5695 5692 5690 5687 5685 5682 5680 5677 5674 5672 5669 5666 5664 5661 5658 5655 5653 5650 5647 5644 5642 5639 5636 5633 5630 5627 5623 5620 5617 5613 5610 5607 5603 5600 5596 5592 5588 5585 5581 5577 5573 5569 5565
5738 5737 5736 5735 5734 5732 5731 5729 5728 5726 5724 5722 5721 5719 5717 5715 5712 5710 5708 5706 5704 5702 5699 5697 5695 5692 5690 5687 5685 5682 5680 5677 5675 5672 5669 5667 5664 5661 5658 5656 5653 5650 5647 5645 5642 5639 5636 5633 5630 5627 5624 5621 5617 5614 5611 5607 5604 5600 5597 5593 5589 5585 5581 5577 5573 5570 5566 5562 5557
5736 5735 5733 5732 5731 5729 5727 5726 5724 5722 5721 5719 5717 5715 5713 5711 5708 5706 5704 5702 5699 5697 5695 5692 5690 5688 5685 5683 5680 5678 5675 5672 5670 5667 5665 5662 5659 5656 5653 5651 5648 5645 5642 5639 5637 5633 5630 5627 5624 5621 5618 5615 5612 5608 5604 5601 5597 5594 5590 5586 5582 5578 5574 5570 5566 5562 5558 5554 5550
5733 5732 5730 5729 5727 5726 5724 5722 5721 5719 5717 5715 5713 5711 5709 5707 5704 5702 5700 5697 5695 5693 5690 5688 5686 5683 5681 5678 5676 5673 5670 5667 5665 5662 5660 5657 5654 5652 5649 5646 5643 5640 5637 5634 5631 5628 5625 5622 5619 5615 5612 5609 5606 5602 5598 5594 5591 5587 5583 5579 5575 5571 5567 5563 5558 5554 5550 5547 5542
5730 5729 5727 5726 5724 5722 5721 5719 5717 5715 5713 5712 5709 5707 5705 5702 5700 5698 5696 5693 5691 5688 5686 5684 5681 5679 5676 5674 5671 5668 5666 5663 5660 5658 5655 5652 5649 5647 5644 5641 5637 5634 5632 5628 5625 5622 5619 5616 5613 5610 5606 5602 5599 5595 5592 5587 5584 5580 5576 5572 5568 5563 5559 5555 5551 5547 5542 5539 5535
5727 5726 5724 5722 5721 5719 5717 5715 5713 5712 5710 5707 5705 5703 5701 5698 5696 5694 5692 5689 5687 5684 5682 5679 5677 5674 5672 5669 5667 5664 5661 5659 5656 5653 5650 5647 5645 5642 5638 5636 5632 5629 5626 5623 5620 5617 5613 5610 5607 5603 5600 5597 5593 5589 5585 5581 5577 5573 5569 5565 5561 5556 5552 5547 5543 5539 5535 5531 5527
5724 5722 5721 5719 5717 5715 5714 5712 5710 5708 5706 5704 5702 5699 5697 5694 5692 5690 5687 5685 5683 5680 5678 5675 5672 5670 5667 5665 5662 5659 5657 5654 5651 5648 5645 5642 5640 5637 5633 5630 5627 5624 5620 5617 5614 5611 5607 5604 5600 5597 5593 5590 5586 5582 5578 5574 5570 5567 5562 5558 5554 5549 5545 5540 5536 5532 5528 5523 5519
5721 5719 5717 5716 5714 5712 5710 5708 5706 5704 5702 5700 5697 5695 5693 5690 5688 5686 5683 5681 5678 5676 5673 5671 5668 5665 5662 5660 5657 5655 5652 5649 5646 5643 5640 5637 5634 5631 5628 5625 5621 5618 5615 5611 5608 5605 5601 5598 5594 5590 5587 5583 5579 5576 5571 5567 5563 5559 5555 5551 5547 5542 5538 5532 5528 5524 5520 5516 5512
5717 5716 5714 5712 5710 5708 5706 5704 5702 5700 5698 5696 5693 5691 5688 5686 5684 5681 5679 5676 5674 5671 5668 5666 5663 5661 5658 5655 5653 5650 5647 5644 5641 5638 5635 5632 5629 5625 5622 5619 5615 5612 5608 5605 5602 5598 5595 5591 5588 5584 5580 5576 5572 5568 5565 5560 5556 5552 5548 5543 5539 5535 5530 5526 5520 5516 5512 5508 5504
5714 5712 5710 5708 5707 5705 5702 5701 5698 5696 5694 5692 5689 5687 5684 5682 5680 5677 5674 5672 5669 5667 5664 5661 5659 5656 5653 5651 5648 5645 5642 5639 5636 5633 5630 5627 5623 5620 5616 5613 5609 5606 5602 5598 5595 5592 5588 5585 5581 5578 5574 5570 5565 5561 5557 5553 5549 5545 5540 5536 5531 5527 5522 5518 5513 5508 5504 5500 5496
5711 5709 5707 5705 5703 5701 5699 5697 5694 5692 5690 5687 5685 5682 5680 5678 5675 5673 5670 5667 5665 5662 5659 5657 5654 5652 5649 5646 5643 5640 5637 5634 5631 5627 5624 5621 5617 5614 5610 5607 5603 5599 5596 5592 5588 5585 5581 5577 5574 5571 5567 5563 5559 5554 5550 5546 5541 5537 5532 5528 5523 5519 5514 5510 5505 5501 5497 5492 5488
5707 5705 5703 5701 5699 5697 5695 5693 5691 5688 5686 5683 5681 5678 5676 5673 5671 5668 5666 5663 5660 5658 5655 5652 5649 5647 5644 5641 5638 5635 5632 5629 5625 5622 5618 5615 5612 5608 5604 5601 5597 5593 5589 5585 5581 5577 5574 5571 5567 5563 5559 5556 5552 5547 5542 5538 5533 5529 5524 5520 5515 5511 5506 5502 5497 5493 5489 5485 5481
5704 5702 5700 5697 5696 5693 5691 5689 5687 5684 5682 5679 5677 5674 5672 5669 5667 5664 5662 5659 5656 5653 5651 5648 5645 5642 5639 5636 5633 5630 5626 5623 5620 5617 5613 5609 5606 5602 5598 5594 5590 5587 5582 5579 5575 5571 5567 5563 5560 5556 5552 5548 5544 5539 5535 5531 5526 5521 5517 5512 5507 5503 5498 5494 5489 5485 5481 5477 5474
5700 5698 5696 5694 5692 5690 5687 5685 5682 5680 5677 5675 5672 5670 5667 5665 5662 5660 5657 5655 5652 5649 5646 5643 5640 5637 5634 5631 5628 5625 5621 5617 5614 5611 5607 5604 5600 5596 5592 5588 5584 5580 5576 5572 5568 5564 5560 5556 5552 5548 5544 5540 5536 5532 5527 5523 5518 5514 5509 5504 5500 5495 5491 5487 5482 5478 5474 5470 5466
5697 5695 5692 5690 5688 5686 5683 5681 5678 5676 5673 5671 5668 5666 5663 5661 5658 5655 5653 5650 5647 5644 5641 5638 5635 5632 5629 5626 5622 5619 5616 5612 5608 5605 5601 5598 5594 5590 5586 5582 5577 5573 5569 5565 5561 5557 5553 5549 5545 5541 5537 5532 5528 5524 5520 5516 5511 5507 5502 5497 5493 5488 5484 5479 5475 5471 5467 5462 5458
5693 5691 5689 5687 5684 5682 5679 5677 5674 5672 5669 5667 5664 5662 5659 5657 5654 5651 5648 5646 5643 5640 5637 5633 5630 5627 5624 5621 5617 5613 5610 5607 5603 5599 5595 5592 5587 5583 5579 5575 5571 5566 5562 5558 5554 5550 5546 5542 5538 5534 5529 5525 5521 5517 5512 5508 5504 5500 5495 5491 5486 5482 5477 5472 5468 5464 5459 5455 5451
5689 5687 5685 5682 5680 5678 5675 5673 5670 5667 5665 5662 5660 5657 5655 5652 5649 5647 5644 5641 5638 5635 5632 5629 5625 5622 5618 5615 5612 5608 5604 5601 5597 5593 5589 5585 5581 5577 5572 5568 5564 5559 5555 5551 5547 5543 5539 5535 5531 5527 5522 5518 5514 5510 5506 5502 5497 5493 5488 5484 5480 5475 5471 5466 5462 5457 5452 5448 5444
5685 5683 5681 5678 5676 5673 5671 5668 5666 5663 5661 5658 5656 5653 5650 5647 5645 5642 5639 5636 5633 5630 5627 5624 5620 5617 5613 5610 5606 5602 5598 5594 5591 5587 5582 5578 5574 5570 5566 5562 5557 5552 5548 5544 5540 5536 5532 5527 5523 5519 5515 5511 5507 5503 5499 5495 5491 5486 5482 5477 5473 5469 5465 5460 5455 5451 5446 5441 5437
5681 5679 5677 5674 5672 5669 5667 5664 5662 5659 5656 5654 5651 5648 5646 5643 5640 5637 5634 5631 5628 5625 5622 5618 5615 5612 5608 5604 5601 5597 5592 5588 5584 5580 5576 5572 5567 5563 5559 5555 5551 5546 5541 5537 5532 5528 5524 5520 5516 5512 5508 5504 5500 5496 5492 5488 5484 5480 5476 5472 5467 5463 5458 5454 5449 5444 5439 5434 5430
5677 5675 5672 5670 5667 5665 5662 5660 5657 5654 5652 5649 5647 5644 5641 5638 5635 5632 5629 5626 5623 5620 5617 5613 5610 5606 5602 5598 5595 5591 5587 5582 5578 5574 5570 5565 5561 5557 5552 5548 5544 5539 5535 5530 5526 5522 5517 5513 5509 5505 5501 5497 5493 5489 5485 5481 5477 5473 5469 5465 5461 5457 5452 5447 5442 5437 5432 5427 5423
5673 5670 5668 5665 5663 5660 5658 5655 5653 5650 5647 5645 5642 5639 5637 5634 5631 5628 5625 5621 5618 5615 5611 5607 5604 5600 5597 5592 5589 5585 5581 5577 5572 5567 5563 5559 5555 5550 5546 5541 5537 5532 5528 5523 5519 5514 5510 5506 5502 5497 5493 5490 5486 5482 5479 5475 5471 5467 5463 5458 5454 5450 5446 5441 5436 5431 5426 5421 5416
5668 5666 5663 5661 5658 5656 5653 5651 5648 5646 5643 5640 5638 5635 5632 5629 5626 5623 5620 5616 5613 5609 5606 5602 5598 5595 5591 5587 5582 5579 5575 5571 5567 5562 5557 5553 5548 5544 5540 5535 5531 5526 5522 5517 5512 5507 5503 5498 5494 5490 5486 5482 5479 5475 5472 5468 5464 5460 5456 5452 5447 5443 5438 5434 5429 5424 5419 5415 5409
5664 5662 5659 5657 5654 5652 5649 5647 5644 5641 5639 5636 5633 5630 5627 5625 5622 5618 5615 5611 5608 5604 5601 5597 5593 5589 5585 5581 5577 5572 5568 5564 5561 5557 5552 5547 5543 5538 5534 5529 5525 5520 5515 5511 5506 5501 5496 5492 5487 5482 5478 5475 5471 5468 5465 5461 5457 5453 5449 5445 5440 5436 5431 5427 5422 5417 5412 5408 5403
5660 5657 5655 5652 5650 5647 5645 5642 5640 5637 5634 5631 5628 5626 5623 5620 5617 5613 5610 5606 5602 5599 5595 5591 5587 5583 5579 5575 5571 5567 5562 5558 5554 5550 5546 5542 5537 5533 5528 5523 5518 5514 5509 5505 5500 5496 5491 5486 5481 5476 5472 5468 5464 5461 5458 5454 5450 5446 5442 5438 5433 5429 5424 5419 5415 5410 5406 5401 5396
5656 5653 5651 5648 5646 5643 5640 5638 5635 5632 5630 5627 5624 5621 5618 5615 5612 5608 5605 5601 5597 5593 5589 5586 5582 5578 5574 5569 5565 5561 5557 5552 5548 5544 5540 5536 5532 5527 5522 5517 5512 5507 5503 5498 5494 5490 5485 5481 5476 5471 5466 5462 5458 5454 5451 5448 5444 5440 5435 5431 5426 5421 5417 5412 5407 5403 5398 5394 5390
5652 5649 5647 5644 5641 5639 5636 5633 5631 5628 5625 5622 5619 5616 5613 5609 5606 5603 5599 5596 5592 5588 5584 5580 5576 5572 5568 5564 5560 5556 5551 5547 5543 5538 5534 5530 5525 5521 5517 5512 5507 5502 5497 5492 5488 5484 5480 5475 5471 5466 5461 5457 5452 5448 5445 5441 5437 5433 5428 5424 5419 5414 5409 5404 5399 5395 5391 5387 5383
5648 5645 5642 5640 5637 5634 5632 5629 5626 5623 5620 5617 5614 5611 5607 5604 5601 5598 5594 5591 5587 5583 5579 5575 5571 5567 5562 5559 5555 5550 5546 5541 5537 5533 5529 5524 5520 5515 5510 5506 5501 5496 5491 5487 5483 5479 5474 5470 5465 5461 5456 5452 5447 5442 5438 5435 5431 5426 5422 5417 5412 5407 5402 5397 5392 5388 5384 5380 5377
5643 5641 5638 5635 5633 5630 5627 5624 5622 5618 5615 5612 5609 5606 5602 5599 5596 5592 5589 5585 5582 5577 5573 5570 5566 5562 5557 5553 5549 5544 5540 5535 5531 5527 5522 5519 5514 5510 5505 5500 5495 5490 5486 5482 5477 5473 5469 5464 5460 5455 5451 5446 5442 5437 5433 5429 5424 5420 5415 5410 5405 5400 5395 5390 5386 5382 5377 5373 5370
5639 5637 5634 5631 5628 5626 5622 5620 5617 5613 5610 5607 5604 5601 5597 5594 5591 5587 5584 5580 5576 5572 5568 5564 5560 5556 5552 5547 5543 5539 5534 5530 5525 5521 5516 5512 5508 5504 5499 5494 5490 5485 5481 5476 5472 5468 5463 5459 5454 5450 5445 5441 5437 5432 5428 5423 5419 5414 5409 5404 5399 5394 5389 5384 5379 5375 5372 5368 5364
5635 5632 5629 5627 5624 5621 5618 5615 5612 5609 5605 5602 5599 5596 5592 5589 5585 5582 5578 5575 5571 5567 5563 5559 5555 5551 5547 5542 5538 5533 5529 5524 5520 5516 5511 5506 5502 5498 5493 5489 5484 5480 5476 5471 5467 5462 5458 5453 5449 5444 5440 5435 5431 5427 5422 5418 5413 5408 5403 5398 5393 5388 5383 5378 5374 5370 5366 5362 5359
5630 5627 5625 5622 5619 5616 5613 5610 5607 5604 5601 5597 5594 5591 5587 5584 5580 5577 5573 5570 5566 5562 5558 5554 5549 5545 5541 5537 5532 5528 5523 5518 5514 5510 5505 5501 5497 5492 5488 5483 5479 5475 5471 5466 5461 5457 5452 5448 5443 5438 5434 5430 5426 5422 5417 5412 5408 5403 5398 5393 5388 5383 5378 5373 5369 5365 5361 5357 5354
5626 5623 5620 5617 5615 5612 5608 5605 5602 5599 5596 5592 5589 5585 5582 5579 5575 5572 5568 5564 5560 5557 5552 5548 5544 5540 5535 5531 5527 5522 5518 5513 5508 5503 5499 5495 5491 5487 5483 5478 5474 5470 5465 5461 5456 5451 5447 5442 5437 5432 5428 5424 5420 5416 5412 5407 5402 5397 5392 5388 5383 5378 5373 5369 5365 5361 5357 5353 5349
5622 5619 5616 5612 5610 5607 5604 5601 5597 5594 5591 5587 5584 5580 5577 5573 5570 5567 5563 5560 5555 5551 5547 5543 5538 5534 5529 5525 5521 5516 5512 5507 5502 5497 5493 5489 5486 5482 5478 5473 5469 5464 5460 5456 5451 5446 5441 5436 5432 5427 5422 5418 5414 5410 5406 5402 5397 5392 5387 5382 5378 5373 5369 5364 5360 5357 5352 5349 5345
5617 5614 5611 5608 5605 5602 5599 5596 5592 5589 5586 5582 5579 5576 5572 5568 5565 5561 5558 5555 5551 5546 5542 5538 5533 5529 5524 5520 5515 5511 5506 5502 5497 5492 5487 5483 5480 5477 5473 5469 5464 5459 5455 5451 5446 5441 5436 5431 5426 5421 5417 5412 5408 5404 5400 5396 5391 5387 5382 5377 5373 5368 5364 5360 5357 5352 5349 5345 5341
5612 5610 5607 5604 5601 5597 5594 5591 5588 5584 5581 5577 5574 5571 5567 5564 5560 5556 5552 5549 5545 5542 5537 5533 5528 5524 5520 5516 5511 5506 5501 5496 5491 5487 5482 5477 5474 5471 5467 5464 5459 5455 5450 5446 5441 5436 5431 5426 5421 5416 5411 5407 5402 5398 5394 5390 5386 5381 5377 5372 5368 5364 5360 5356 5352 5349 5345 5341 5337
5607 5605 5602 5599 5596 5592 5589 5586 5583 5579 5576 5572 5569 5566 5562 5559 5555 5551 5547 5543 5540 5536 5532 5527 5523 5519 5514 5510 5506 5501 5496 5490 5486 5482 5477 5473 5468 5465 5462 5458 5454 5449 5445 5441 5436 5431 5426 5421 5416 5411 5406 5401 5397 5392 5388 5384 5380 5376 5371 5367 5363 5359 5356 5352 5349 5345 5341 5338 5334
5603 5600 5597 5594 5591 5588 5584 5581 5578 5574 5571 5568 5564 5561 5557 5554 5550 5546 5542 5538 5534 5530 5527 5522 5518 5513 5509 5505 5500 5496 5491 5486 5481 5476 5472 5468 5464 5460 5456 5453 5449 5445 5440 5436 5432 5427 5421 5416 5411 5406 5401 5396 5391 5387 5383 5378 5374 5370 5366 5362 5358 5355 5351 5348 5345 5342 5338 5334 5331
5598 5595 5592 5589 5586 5583 5580 5576 5573 5569 5566 5563 5559 5556 5552 5548 5545 5541 5537 5532 5528 5524 5521 5517 5512 5507 5503 5499 5495 5491 5486 5481 5476 5472 5467 5464 5459 5455 5451 5448 5444 5440 5435 5431 5427 5422 5417 5412 5406 5401 5396 5390 5386 5381 5377 5373 5369 5365 5361 5357 5354 5350 5347 5344 5341 5338 5335 5331 5327
5593 5590 5587 5584 5581 5578 5575 5572 5568 5564 5561 5557 5554 5551 5547 5543 5539 5535 5531 5527 5523 5518 5515 5511 5507 5502 5497 5493 5489 5485 5481 5477 5472 5467 5463 5459 5455 5451 5447 5443 5440 5436 5431 5426 5422 5418 5413 5407 5402 5397 5391 5386 5381 5376 5372 5367 5363 5359 5355 5352 5349 5346 5343 5340 5337 5334 5331 5327 5324